Home   Weather   Saskatoon   Past weeks

Flag for Canada Past Weather in Saskatoon, Saskatchewan, Canada — Yesterday and Last 2 Weeks

Now
46 °F

Overcast.


Feels Like: 43 °F
Forecast: 37 / 49 °F
Wind: 7 mph from Northwest

Location: Saskatoon Weather Station

Current Time: Sep 18, 2018 at 1:31:23 pm

Latest Report: Sep 18, 2018 at 1:00 pm


Visibility: 15 mi

Pressure: 30.21 "Hg

Humidity: 66%

Dew Point: 36 °F

Location of SaskatoonLocation

Past Weather in Saskatoon — Graph

°F

Saskatoon Temperature Yesterday

Maximum temperature yesterday: 48 °F (at 5:00 pm)
Minimum temperature yesterday: 37 °F (at 7:10 am)
Average temperature yesterday: 41 °F

High & Low Weather Summary for the Past Weeks

 TemperatureHumidityPressure
High73 °F (Sep 6, 3:00 pm)100% (Sep 10, 6:00 am)30.39 "Hg (Sep 10, 6:00 am)
Low32 °F (Sep 5, 3:00 am)25% (Sep 5, 5:00 pm)29.66 "Hg (Sep 8, 9:00 pm)
Average49 °F78%30.07 "Hg
* Reported Sep 3 12:00 pm — Sep 18 12:00 pm, Saskatoon. Weather by CustomWeather, © 2018

Note: Actual official high and low records may vary slightly from our data, if they occured in-between our weather recording intervals... More about our weather records

Advertising

Saskatoon Weather History for the Previous 24 Hours

Scroll right to see more
 ConditionsComfort  
Time TempWeatherWind HumidityBarometerVisibility
12:00 pm
Tue, Sep 18
46 °FOvercast.7 mph66%30.21 "Hg15 mi
11:00 am45 °FPartly sunny.3 mph71%30.22 "Hg15 mi
10:00 am45 °FBroken clouds.2 mph71%30.22 "Hg15 mi
9:00 am43 °FPartly sunny.6 mph76%30.23 "Hg15 mi
8:00 am41 °FOvercast.No wind81%30.24 "Hg15 mi
7:00 am39 °FOvercast.2 mph87%30.24 "Hg15 mi
6:00 am39 °FOvercast.2 mph87%30.22 "Hg15 mi
5:00 am39 °FOvercast.2 mph93%30.23 "Hg15 mi
4:00 am41 °FOvercast.3 mph87%30.22 "Hg15 mi
3:00 am41 °FOvercast.3 mph87%30.22 "Hg15 mi
2:00 am41 °FOvercast.No wind81%30.22 "Hg15 mi
1:00 am41 °FOvercast.No wind81%30.22 "Hg15 mi
12:00 am41 °FOvercast.2 mph81%30.23 "Hg15 mi
11:00 pm
Mon, Sep 17
41 °FOvercast.5 mph81%30.22 "Hg15 mi
10:00 pm43 °FOvercast.3 mph76%30.22 "Hg15 mi
9:00 pm43 °FOvercast.6 mph76%30.21 "Hg15 mi
8:00 pm43 °FOvercast.8 mph76%30.19 "Hg15 mi
7:00 pm45 °FMostly cloudy.10 mph76%30.16 "Hg15 mi
6:00 pm46 °FMostly cloudy.9 mph71%30.14 "Hg15 mi
5:00 pm48 °FPartly sunny.10 mph71%30.13 "Hg15 mi
4:00 pm46 °FMostly cloudy.13 mph76%30.11 "Hg15 mi
3:00 pm46 °FPartly sunny.8 mph82%30.12 "Hg15 mi
2:00 pm45 °FPartly sunny.5 mph81%30.12 "Hg15 mi
1:35 pm43 °FScattered showers. Partly sunny.8 mph87%30.14 "Hg15 mi
1:11 pm41 °FSprinkles. Mostly cloudy.8 mph93%30.14 "Hg12 mi
Weather by CustomWeather, © 2018

See weather overview